Time,TemperatureF,DewpointF,PressureIn,WindDirection,WindDirectionDegrees,WindSpeedMPH,WindSpeedGustMPH,Humidity,HourlyPrecipIn,Conditions,Clouds,dailyrainin,SolarRadiationWatts/m^2,SoftwareType,DateUTC
2013-01-06 00:00:00,5.3,-1.5,30.74,East,90,3.0,5.0,73,0.00,,,-99.99,0,WeatherLink 5.7,2013-01-06 07:00:00,
2013-01-06 00:05:00,4.9,-1.6,30.74,East,90,3.0,5.0,74,0.00,,,-99.99,0,WeatherLink 5.7,2013-01-06 07:05:00,
2013-01-06 00:10:00,5.1,-1.4,30.74,East,90,4.0,6.0,74,0.00,,,-99.99,0,WeatherLink 5.7,2013-01-06 07:10:00,
2013-01-06 00:15:00,5.1,-1.4,30.69,East,90,3.0,6.0,74,0.00,,,-99.99,0,WeatherLink 5.7,2013-01-06 07:15:00,
2013-01-06 00:20:00,4.7,-1.8,30.69,East,90,3.0,5.0,74,0.00,,,-99.99,0,WeatherLink 5.7,2013-01-06 07:20:00,
2013-01-06 00:25:00,4.5,-2.0,30.69,East,90,3.0,5.0,74,0.00,,,-99.99,0,WeatherLink 5.7,2013-01-06 07:25:00,
2013-01-06 00:30:00,4.4,-2.1,30.69,ESE,112,2.0,5.0,74,0.00,,,-99.99,0,WeatherLink 5.7,2013-01-06 07:30:00,
2013-01-06 00:35:00,4.0,-2.4,30.69,ESE,112,1.0,3.0,74,0.00,,,-99.99,0,WeatherLink 5.7,2013-01-06 07:35:00,
2013-01-06 00:40:00,4.0,-2.4,30.69,ESE,112,2.0,3.0,74,0.00,,,-99.99,0,WeatherLink 5.7,2013-01-06 07:40:00,
2013-01-06 00:45:00,3.8,-2.4,30.69,ESE,112,2.0,3.0,75,0.00,,,-99.99,0,WeatherLink 5.7,2013-01-06 07:45:00,
2013-01-06 00:50:00,4.0,-2.2,30.69,East,90,3.0,6.0,75,0.00,,,-99.99,0,WeatherLink 5.7,2013-01-06 07:50:00,
2013-01-06 00:55:00,3.8,-2.4,30.69,East,90,3.0,6.0,75,0.00,,,-99.99,0,WeatherLink 5.7,2013-01-06 07:55:00,
2013-01-06 01:00:00,3.6,-2.6,30.69,East,90,3.0,5.0,75,0.00,,,-99.99,0,WeatherLink 5.7,2013-01-06 08:00:00,
2013-01-06 01:05:00,3.4,-2.7,30.69,East,90,3.0,5.0,75,0.00,,,-99.99,0,WeatherLink 5.7,2013-01-06 08:05:00,
2013-01-06 01:10:00,3.4,-2.7,30.69,East,90,3.0,5.0,75,0.00,,,-99.99,0,WeatherLink 5.7,2013-01-06 08:10:00,
2013-01-06 01:15:00,3.4,-2.7,30.68,East,90,3.0,5.0,75,0.00,,,-99.99,0,WeatherLink 5.7,2013-01-06 08:15:00,
2013-01-06 01:20:00,3.2,-2.9,30.68,East,90,2.0,4.0,75,0.00,,,-99.99,0,WeatherLink 5.7,2013-01-06 08:20:00,
2013-01-06 01:25:00,3.1,-3.0,30.68,East,90,2.0,3.0,75,0.00,,,-99.99,0,WeatherLink 5.7,2013-01-06 08:25:00,
2013-01-06 01:40:00,3.1,-3.0,30.68,East,90,3.0,5.0,75,0.00,,,-99.99,0,WeatherLink 5.7,2013-01-06 08:40:00,
2013-01-06 01:45:00,3.1,-3.0,30.69,East,90,3.0,5.0,75,0.00,,,-99.99,0,WeatherLink 5.7,2013-01-06 08:45:00,
2013-01-06 01:50:00,3.1,-3.0,30.69,East,90,3.0,5.0,75,0.00,,,-99.99,0,WeatherLink 5.7,2013-01-06 08:50:00,
2013-01-06 01:55:00,2.9,-3.2,30.69,East,90,3.0,5.0,75,0.00,,,-99.99,0,WeatherLink 5.7,2013-01-06 08:55:00,
2013-01-06 02:00:00,3.1,-3.0,30.69,East,90,3.0,6.0,75,0.00,,,-99.99,0,WeatherLink 5.7,2013-01-06 09:00:00,
2013-01-06 02:05:00,3.2,-2.9,30.69,East,90,3.0,5.0,75,0.00,,,-99.99,0,WeatherLink 5.7,2013-01-06 09:05:00,
2013-01-06 02:10:00,3.2,-2.9,30.69,East,90,3.0,6.0,75,0.00,,,-99.99,0,WeatherLink 5.7,2013-01-06 09:10:00,
2013-01-06 02:15:00,3.1,-3.0,30.68,East,90,3.0,5.0,75,0.00,,,-99.99,0,WeatherLink 5.7,2013-01-06 09:15:00,
2013-01-06 02:20:00,2.9,-3.2,30.68,East,90,2.0,4.0,75,0.00,,,-99.99,0,WeatherLink 5.7,2013-01-06 09:20:00,
2013-01-06 02:25:00,2.7,-3.4,30.68,ESE,112,2.0,4.0,75,0.00,,,-99.99,0,WeatherLink 5.7,2013-01-06 09:25:00,
2013-01-06 02:30:00,2.7,-3.4,30.68,ESE,112,1.0,3.0,75,0.00,,,-99.99,0,WeatherLink 5.7,2013-01-06 09:30:00,
2013-01-06 02:35:00,2.5,-3.6,30.68,ESE,112,2.0,3.0,75,0.00,,,-99.99,0,WeatherLink 5.7,2013-01-06 09:35:00,
2013-01-06 02:40:00,2.3,-3.8,30.68,ESE,112,2.0,5.0,75,0.00,,,-99.99,0,WeatherLink 5.7,2013-01-06 09:40:00,
2013-01-06 02:45:00,2.5,-3.6,30.68,East,90,3.0,5.0,75,0.00,,,-99.99,0,WeatherLink 5.7,2013-01-06 09:45:00,
2013-01-06 02:50:00,2.7,-3.4,30.68,East,90,3.0,5.0,75,0.00,,,-99.99,0,WeatherLink 5.7,2013-01-06 09:50:00,
2013-01-06 02:55:00,2.5,-3.6,30.68,East,90,2.0,5.0,75,0.00,,,-99.99,0,WeatherLink 5.7,2013-01-06 09:55:00,
2013-01-06 03:00:00,2.3,-3.8,30.67,SE,135,2.0,3.0,75,0.00,,,-99.99,0,WeatherLink 5.7,2013-01-06 10:00:00,
2013-01-06 03:05:00,2.3,-3.8,30.67,East,90,2.0,3.0,75,0.00,,,-99.99,0,WeatherLink 5.7,2013-01-06 10:05:00,
2013-01-06 03:10:00,2.1,-4.3,30.67,East,90,2.0,5.0,74,0.00,,,-99.99,0,WeatherLink 5.7,2013-01-06 10:10:00,
2013-01-06 03:15:00,1.7,-4.7,30.68,East,90,3.0,5.0,74,0.00,,,-99.99,0,WeatherLink 5.7,2013-01-06 10:15:00,
2013-01-06 03:20:00,1.4,-5.0,30.68,East,90,2.0,4.0,74,0.00,,,-99.99,0,WeatherLink 5.7,2013-01-06 10:20:00,
2013-01-06 03:25:00,1.2,-4.9,30.68,East,90,3.0,6.0,75,0.00,,,-99.99,0,WeatherLink 5.7,2013-01-06 10:25:00,
2013-01-06 03:30:00,1.4,-4.7,30.69,East,90,3.0,6.0,75,0.00,,,-99.99,0,WeatherLink 5.7,2013-01-06 10:30:00,
2013-01-06 03:35:00,1.2,-4.9,30.69,East,90,3.0,5.0,75,0.00,,,-99.99,0,WeatherLink 5.7,2013-01-06 10:35:00,
2013-01-06 03:40:00,1.2,-4.9,30.69,ESE,112,3.0,5.0,75,0.00,,,-99.99,0,WeatherLink 5.7,2013-01-06 10:40:00,
2013-01-06 03:45:00,1.0,-5.1,30.69,ESE,112,3.0,5.0,75,0.00,,,-99.99,0,WeatherLink 5.7,2013-01-06 10:45:00,
2013-01-06 03:50:00,1.0,-5.1,30.69,ESE,112,3.0,5.0,75,0.00,,,-99.99,0,WeatherLink 5.7,2013-01-06 10:50:00,
2013-01-06 03:55:00,1.0,-5.1,30.69,East,90,2.0,4.0,75,0.00,,,-99.99,0,WeatherLink 5.7,2013-01-06 10:55:00,
2013-01-06 04:00:00,1.0,-5.1,30.68,ESE,112,2.0,4.0,75,0.00,,,-99.99,0,WeatherLink 5.7,2013-01-06 11:00:00,
2013-01-06 04:05:00,1.4,-4.4,30.68,East,90,2.0,5.0,76,0.00,,,-99.99,0,WeatherLink 5.7,2013-01-06 11:05:00,
2013-01-06 04:10:00,1.4,-4.7,30.68,East,90,2.0,4.0,75,0.00,,,-99.99,0,WeatherLink 5.7,2013-01-06 11:10:00,
2013-01-06 04:15:00,1.4,-4.7,30.70,ESE,112,2.0,5.0,75,0.00,,,-99.99,0,WeatherLink 5.7,2013-01-06 11:15:00,
2013-01-06 04:20:00,1.2,-4.9,30.70,East,90,2.0,3.0,75,0.00,,,-99.99,0,WeatherLink 5.7,2013-01-06 11:20:00,
2013-01-06 04:25:00,0.8,-5.3,30.70,East,90,3.0,5.0,75,0.00,,,-99.99,0,WeatherLink 5.7,2013-01-06 11:25:00,
2013-01-06 04:30:00,0.8,-5.3,30.71,East,90,3.0,5.0,75,0.00,,,-99.99,0,WeatherLink 5.7,2013-01-06 11:30:00,
2013-01-06 04:35:00,0.8,-5.3,30.71,ESE,112,3.0,4.0,75,0.00,,,-99.99,0,WeatherLink 5.7,2013-01-06 11:35:00,
2013-01-06 04:40:00,0.6,-5.5,30.71,East,90,3.0,6.0,75,0.00,,,-99.99,0,WeatherLink 5.7,2013-01-06 11:40:00,
2013-01-06 04:45:00,0.6,-5.5,30.70,East,90,3.0,6.0,75,0.00,,,-99.99,0,WeatherLink 5.7,2013-01-06 11:45:00,
2013-01-06 04:50:00,0.2,-5.9,30.70,ESE,112,2.0,4.0,75,0.00,,,-99.99,0,WeatherLink 5.7,2013-01-06 11:50:00,
2013-01-06 04:55:00,0.0,-6.0,30.70,East,90,2.0,5.0,75,0.00,,,-99.99,0,WeatherLink 5.7,2013-01-06 11:55:00,
2013-01-06 05:00:00,-0.2,-6.2,30.72,East,90,2.0,5.0,75,0.00,,,-99.99,0,WeatherLink 5.7,2013-01-06 12:00:00,
2013-01-06 05:05:00,-0.2,-6.2,30.72,East,90,3.0,6.0,75,0.00,,,-99.99,0,WeatherLink 5.7,2013-01-06 12:05:00,
2013-01-06 05:10:00,-0.2,-6.2,30.72,East,90,2.0,4.0,75,0.00,,,-99.99,0,WeatherLink 5.7,2013-01-06 12:10:00,
2013-01-06 05:15:00,-0.2,-6.2,30.73,East,90,2.0,5.0,75,0.00,,,-99.99,0,WeatherLink 5.7,2013-01-06 12:15:00,
2013-01-06 05:20:00,-0.2,-6.2,30.73,East,90,2.0,5.0,75,0.00,,,-99.99,0,WeatherLink 5.7,2013-01-06 12:20:00,
2013-01-06 05:25:00,0.0,-5.8,30.73,East,90,2.0,3.0,76,0.00,,,-99.99,0,WeatherLink 5.7,2013-01-06 12:25:00,
2013-01-06 05:30:00,0.6,-5.2,30.74,East,90,3.0,5.0,76,0.00,,,-99.99,0,WeatherLink 5.7,2013-01-06 12:30:00,
2013-01-06 05:35:00,0.6,-5.5,30.74,East,90,4.0,5.0,75,0.00,,,-99.99,0,WeatherLink 5.7,2013-01-06 12:35:00,
2013-01-06 05:40:00,0.6,-5.5,30.74,East,90,3.0,5.0,75,0.00,,,-99.99,0,WeatherLink 5.7,2013-01-06 12:40:00,
2013-01-06 05:45:00,0.2,-5.9,30.74,East,90,2.0,4.0,75,0.00,,,-99.99,0,WeatherLink 5.7,2013-01-06 12:45:00,
2013-01-06 05:50:00,0.2,-5.9,30.74,East,90,2.0,4.0,75,0.00,,,-99.99,0,WeatherLink 5.7,2013-01-06 12:50:00,
2013-01-06 05:55:00,0.0,-6.0,30.74,ESE,112,2.0,4.0,75,0.00,,,-99.99,0,WeatherLink 5.7,2013-01-06 12:55:00,
2013-01-06 06:00:00,-0.2,-6.2,30.74,ESE,112,3.0,5.0,75,0.00,,,-99.99,0,WeatherLink 5.7,2013-01-06 13:00:00,
2013-01-06 06:05:00,-0.3,-6.3,30.74,East,90,4.0,5.0,75,0.00,,,-99.99,0,WeatherLink 5.7,2013-01-06 13:05:00,
2013-01-06 06:10:00,-0.3,-6.3,30.74,East,90,4.0,6.0,75,0.00,,,-99.99,0,WeatherLink 5.7,2013-01-06 13:10:00,
2013-01-06 06:15:00,-0.3,-6.3,30.76,East,90,3.0,5.0,75,0.00,,,-99.99,0,WeatherLink 5.7,2013-01-06 13:15:00,
2013-01-06 06:20:00,-0.5,-6.5,30.76,East,90,4.0,6.0,75,0.00,,,-99.99,0,WeatherLink 5.7,2013-01-06 13:20:00,
2013-01-06 06:25:00,-0.7,-6.7,30.76,East,90,3.0,6.0,75,0.00,,,-99.99,0,WeatherLink 5.7,2013-01-06 13:25:00,
2013-01-06 06:30:00,-0.7,-6.7,30.76,East,90,3.0,5.0,75,0.00,,,-99.99,0,WeatherLink 5.7,2013-01-06 13:30:00,
2013-01-06 06:35:00,-0.5,-6.5,30.76,East,90,2.0,5.0,75,0.00,,,-99.99,0,WeatherLink 5.7,2013-01-06 13:35:00,
2013-01-06 06:40:00,-0.7,-6.7,30.76,ESE,112,1.0,4.0,75,0.00,,,-99.99,0,WeatherLink 5.7,2013-01-06 13:40:00,
2013-01-06 06:45:00,-0.7,-6.7,30.76,East,90,2.0,4.0,75,0.00,,,-99.99,0,WeatherLink 5.7,2013-01-06 13:45:00,
2013-01-06 06:50:00,-0.7,-6.7,30.76,East,90,1.0,2.0,75,0.00,,,-99.99,0,WeatherLink 5.7,2013-01-06 13:50:00,
2013-01-06 06:55:00,-0.9,-6.9,30.76,East,90,3.0,4.0,75,0.00,,,-99.99,0,WeatherLink 5.7,2013-01-06 13:55:00,
2013-01-06 07:00:00,-0.9,-6.9,30.76,East,90,3.0,5.0,75,0.00,,,-99.99,0,WeatherLink 5.7,2013-01-06 14:00:00,
2013-01-06 07:05:00,-1.1,-7.1,30.76,East,90,3.0,5.0,75,0.00,,,-99.99,0,WeatherLink 5.7,2013-01-06 14:05:00,
2013-01-06 07:10:00,-1.3,-7.3,30.76,East,90,2.0,5.0,75,0.00,,,-99.99,0,WeatherLink 5.7,2013-01-06 14:10:00,
2013-01-06 07:15:00,-1.5,-7.5,30.80,East,90,2.0,4.0,75,0.00,,,-99.99,0,WeatherLink 5.7,2013-01-06 14:15:00,
2013-01-06 07:20:00,-1.5,-7.5,30.80,East,90,2.0,5.0,75,0.00,,,-99.99,0,WeatherLink 5.7,2013-01-06 14:20:00,
2013-01-06 07:25:00,-1.7,-7.7,30.80,East,90,2.0,3.0,75,0.00,,,-99.99,0,WeatherLink 5.7,2013-01-06 14:25:00,
2013-01-06 07:30:00,-1.3,-7.3,30.79,East,90,2.0,4.0,75,0.00,,,-99.99,3,WeatherLink 5.7,2013-01-06 14:30:00,
2013-01-06 07:35:00,-1.5,-7.5,30.79,East,90,2.0,5.0,75,0.00,,,-99.99,6,WeatherLink 5.7,2013-01-06 14:35:00,
2013-01-06 07:40:00,-1.5,-7.5,30.79,East,90,3.0,5.0,75,0.00,,,-99.99,8,WeatherLink 5.7,2013-01-06 14:40:00,
2013-01-06 07:45:00,-1.3,-7.3,30.79,East,90,2.0,5.0,75,0.00,,,-99.99,10,WeatherLink 5.7,2013-01-06 14:45:00,
2013-01-06 07:50:00,-1.3,-7.3,30.79,East,90,2.0,5.0,75,0.00,,,-99.99,12,WeatherLink 5.7,2013-01-06 14:50:00,
2013-01-06 07:55:00,-1.1,-7.1,30.79,East,90,3.0,6.0,75,0.00,,,-99.99,13,WeatherLink 5.7,2013-01-06 14:55:00,
2013-01-06 08:00:00,-0.9,-6.9,30.79,East,90,3.0,5.0,75,0.00,,,-99.99,15,WeatherLink 5.7,2013-01-06 15:00:00,
2013-01-06 08:05:00,-0.9,-6.9,30.79,East,90,3.0,6.0,75,0.00,,,-99.99,17,WeatherLink 5.7,2013-01-06 15:05:00,
2013-01-06 08:10:00,-1.1,-7.4,30.79,East,90,3.0,4.0,74,0.00,,,-99.99,18,WeatherLink 5.7,2013-01-06 15:10:00,
2013-01-06 08:15:00,-1.3,-7.6,30.81,East,90,2.0,4.0,74,0.00,,,-99.99,19,WeatherLink 5.7,2013-01-06 15:15:00,
2013-01-06 08:20:00,-1.3,-7.6,30.81,East,90,3.0,4.0,74,0.00,,,-99.99,23,WeatherLink 5.7,2013-01-06 15:20:00,
2013-01-06 08:25:00,-1.1,-7.1,30.81,East,90,3.0,4.0,75,0.00,,,-99.99,32,WeatherLink 5.7,2013-01-06 15:25:00,
2013-01-06 08:30:00,-0.5,-6.5,30.81,East,90,3.0,5.0,75,0.00,,,-99.99,116,WeatherLink 5.7,2013-01-06 15:30:00,
2013-01-06 08:35:00,0.0,-6.3,30.81,East,90,2.0,4.0,74,0.00,,,-99.99,145,WeatherLink 5.7,2013-01-06 15:35:00,
2013-01-06 08:40:00,0.2,-6.4,30.81,East,90,2.0,4.0,73,0.00,,,-99.99,136,WeatherLink 5.7,2013-01-06 15:40:00,
2013-01-06 08:45:00,1.0,-5.6,30.79,East,90,3.0,5.0,73,0.00,,,-99.99,148,WeatherLink 5.7,2013-01-06 15:45:00,
2013-01-06 08:50:00,1.5,-5.4,30.79,East,90,3.0,5.0,72,0.00,,,-99.99,176,WeatherLink 5.7,2013-01-06 15:50:00,
2013-01-06 08:55:00,1.7,-5.5,30.79,East,90,5.0,9.0,71,0.00,,,-99.99,185,WeatherLink 5.7,2013-01-06 15:55:00,
2013-01-06 09:00:00,2.1,-5.2,30.77,East,90,4.0,8.0,71,0.00,,,-99.99,221,WeatherLink 5.7,2013-01-06 16:00:00,
2013-01-06 09:05:00,2.9,-4.4,30.77,East,90,3.0,6.0,71,0.00,,,-99.99,237,WeatherLink 5.7,2013-01-06 16:05:00,
2013-01-06 09:10:00,3.1,-4.5,30.77,East,90,3.0,6.0,70,0.00,,,-99.99,204,WeatherLink 5.7,2013-01-06 16:10:00,
2013-01-06 09:15:00,3.4,-4.2,30.79,East,90,3.0,5.0,70,0.00,,,-99.99,178,WeatherLink 5.7,2013-01-06 16:15:00,
2013-01-06 09:20:00,4.2,-3.4,30.79,SE,135,1.0,5.0,70,0.00,,,-99.99,206,WeatherLink 5.7,2013-01-06 16:20:00,
2013-01-06 09:25:00,4.5,-3.4,30.79,ESE,112,2.0,4.0,69,0.00,,,-99.99,215,WeatherLink 5.7,2013-01-06 16:25:00,
2013-01-06 09:30:00,4.7,-3.6,30.76,SE,135,2.0,4.0,68,0.00,,,-99.99,215,WeatherLink 5.7,2013-01-06 16:30:00,
2013-01-06 09:35:00,5.1,-2.9,30.76,East,90,2.0,3.0,69,0.00,,,-99.99,190,WeatherLink 5.7,2013-01-06 16:35:00,
2013-01-06 09:40:00,5.5,-2.8,30.76,SE,135,2.0,5.0,68,0.00,,,-99.99,166,WeatherLink 5.7,2013-01-06 16:40:00,
2013-01-06 09:45:00,5.8,-2.5,30.74,ESE,112,2.0,4.0,68,0.00,,,-99.99,153,WeatherLink 5.7,2013-01-06 16:45:00,
2013-01-06 09:50:00,6.0,-2.6,30.74,ESE,112,1.0,3.0,67,0.00,,,-99.99,151,WeatherLink 5.7,2013-01-06 16:50:00,
2013-01-06 09:55:00,6.0,-2.6,30.74,ESE,112,2.0,4.0,67,0.00,,,-99.99,163,WeatherLink 5.7,2013-01-06 16:55:00,
2013-01-06 10:00:00,6.2,-2.4,30.74,East,90,2.0,4.0,67,0.00,,,-99.99,201,WeatherLink 5.7,2013-01-06 17:00:00,
2013-01-06 10:05:00,6.6,-2.0,30.74,ESE,112,2.0,4.0,67,0.00,,,-99.99,244,WeatherLink 5.7,2013-01-06 17:05:00,
2013-01-06 10:10:00,7.3,-1.7,30.74,East,90,1.0,3.0,66,0.00,,,-99.99,287,WeatherLink 5.7,2013-01-06 17:10:00,
2013-01-06 10:15:00,7.8,-1.5,30.73,East,90,2.0,4.0,65,0.00,,,-99.99,306,WeatherLink 5.7,2013-01-06 17:15:00,
2013-01-06 10:20:00,8.5,-1.2,30.73,East,90,1.0,3.0,64,0.00,,,-99.99,325,WeatherLink 5.7,2013-01-06 17:20:00,
2013-01-06 10:25:00,9.2,-0.9,30.73,ESE,112,2.0,3.0,63,0.00,,,-99.99,379,WeatherLink 5.7,2013-01-06 17:25:00,
2013-01-06 10:30:00,9.7,-0.4,30.70,East,90,2.0,4.0,63,0.00,,,-99.99,376,WeatherLink 5.7,2013-01-06 17:30:00,
2013-01-06 10:35:00,10.8,0.3,30.70,East,90,3.0,5.0,62,0.00,,,-99.99,460,WeatherLink 5.7,2013-01-06 17:35:00,
2013-01-06 10:40:00,12.0,0.8,30.70,East,90,2.0,4.0,60,0.00,,,-99.99,399,WeatherLink 5.7,2013-01-06 17:40:00,
2013-01-06 10:45:00,12.8,0.8,30.66,East,90,2.0,4.0,58,0.00,,,-99.99,322,WeatherLink 5.7,2013-01-06 17:45:00,
2013-01-06 10:50:00,13.5,1.1,30.66,ESE,112,2.0,4.0,57,0.00,,,-99.99,357,WeatherLink 5.7,2013-01-06 17:50:00,
2013-01-06 10:55:00,14.3,1.8,30.66,East,90,2.0,4.0,57,0.00,,,-99.99,388,WeatherLink 5.7,2013-01-06 17:55:00,
2013-01-06 11:00:00,15.3,2.4,30.64,ESE,112,2.0,5.0,56,0.00,,,-99.99,415,WeatherLink 5.7,2013-01-06 18:00:00,
2013-01-06 11:05:00,15.6,2.3,30.64,ESE,112,2.0,5.0,55,0.00,,,-99.99,378,WeatherLink 5.7,2013-01-06 18:05:00,
2013-01-06 11:10:00,16.1,2.4,30.64,ESE,112,2.0,4.0,54,0.00,,,-99.99,328,WeatherLink 5.7,2013-01-06 18:10:00,
2013-01-06 11:15:00,16.6,2.4,30.60,East,90,2.0,4.0,53,0.00,,,-99.99,296,WeatherLink 5.7,2013-01-06 18:15:00,
2013-01-06 11:20:00,16.9,2.7,30.60,East,90,2.0,3.0,53,0.00,,,-99.99,296,WeatherLink 5.7,2013-01-06 18:20:00,
2013-01-06 11:25:00,17.2,2.6,30.60,ESE,112,1.0,4.0,52,0.00,,,-99.99,242,WeatherLink 5.7,2013-01-06 18:25:00,
2013-01-06 11:30:00,17.5,3.3,30.59,SE,135,1.0,4.0,53,0.00,,,-99.99,306,WeatherLink 5.7,2013-01-06 18:30:00,
2013-01-06 11:35:00,18.1,3.4,30.59,ESE,112,1.0,4.0,52,0.00,,,-99.99,271,WeatherLink 5.7,2013-01-06 18:35:00,
2013-01-06 11:40:00,18.6,3.9,30.59,SE,135,1.0,4.0,52,0.00,,,-99.99,244,WeatherLink 5.7,2013-01-06 18:40:00,
2013-01-06 11:45:00,19.6,4.8,30.55,SE,135,0.0,4.0,52,0.00,,,-99.99,275,WeatherLink 5.7,2013-01-06 18:45:00,
2013-01-06 11:50:00,20.0,4.3,30.55,SSE,157,1.0,4.0,50,0.00,,,-99.99,255,WeatherLink 5.7,2013-01-06 18:50:00,
2013-01-06 11:55:00,20.7,4.5,30.55,East,90,0.0,2.0,49,0.00,,,-99.99,228,WeatherLink 5.7,2013-01-06 18:55:00,
2013-01-06 12:00:00,21.1,4.4,30.52,SSE,157,0.0,2.0,48,0.00,,,-99.99,230,WeatherLink 5.7,2013-01-06 19:00:00,
2013-01-06 12:05:00,21.3,4.6,30.52,South,180,0.0,1.0,48,0.00,,,-99.99,243,WeatherLink 5.7,2013-01-06 19:05:00,
2013-01-06 12:10:00,21.6,4.4,30.52,SSE,157,0.0,3.0,47,0.00,,,-99.99,286,WeatherLink 5.7,2013-01-06 19:10:00,
2013-01-06 12:15:00,21.5,4.4,30.50,SE,135,1.0,4.0,47,0.00,,,-99.99,269,WeatherLink 5.7,2013-01-06 19:15:00,
2013-01-06 12:20:00,21.9,4.3,30.50,North,-999,0.0,0.0,46,0.00,,,-99.99,273,WeatherLink 5.7,2013-01-06 19:20:00,
2013-01-06 12:25:00,21.8,4.2,30.50,SE,135,0.0,2.0,46,0.00,,,-99.99,280,WeatherLink 5.7,2013-01-06 19:25:00,
2013-01-06 12:30:00,21.9,3.8,30.49,SE,135,0.0,2.0,45,0.00,,,-99.99,274,WeatherLink 5.7,2013-01-06 19:30:00,
2013-01-06 12:35:00,22.6,3.9,30.49,SE,135,0.0,2.0,44,0.00,,,-99.99,296,WeatherLink 5.7,2013-01-06 19:35:00,
2013-01-06 12:40:00,22.9,4.7,30.49,SE,135,0.0,3.0,45,0.00,,,-99.99,316,WeatherLink 5.7,2013-01-06 19:40:00,
2013-01-06 12:45:00,23.0,4.8,30.48,South,180,0.0,1.0,45,0.00,,,-99.99,283,WeatherLink 5.7,2013-01-06 19:45:00,
2013-01-06 12:50:00,23.3,4.6,30.48,SSE,157,0.0,3.0,44,0.00,,,-99.99,315,WeatherLink 5.7,2013-01-06 19:50:00,
2013-01-06 12:55:00,23.6,4.8,30.48,North,-999,0.0,0.0,44,0.00,,,-99.99,408,WeatherLink 5.7,2013-01-06 19:55:00,
2013-01-06 13:00:00,24.4,5.1,30.44,SSE,157,0.0,2.0,43,0.00,,,-99.99,336,WeatherLink 5.7,2013-01-06 20:00:00,
2013-01-06 13:05:00,24.5,5.7,30.44,SSE,157,0.0,1.0,44,0.00,,,-99.99,387,WeatherLink 5.7,2013-01-06 20:05:00,
2013-01-06 13:15:00,26.0,6.0,30.44,SSE,157,0.0,1.0,42,0.00,,,-99.99,477,WeatherLink 5.7,2013-01-06 20:15:00,
2013-01-06 13:25:00,27.6,5.8,30.42,WNW,292,0.0,4.0,39,0.00,,,-99.99,548,WeatherLink 5.7,2013-01-06 20:25:00,
2013-01-06 13:30:00,27.5,5.7,30.42,NW,315,0.0,4.0,39,0.00,,,-99.99,479,WeatherLink 5.7,2013-01-06 20:30:00,
2013-01-06 13:35:00,27.0,6.4,30.41,NW,315,1.0,4.0,41,0.00,,,-99.99,434,WeatherLink 5.7,2013-01-06 20:35:00,
2013-01-06 13:45:00,27.6,6.4,30.41,NW,315,1.0,3.0,40,0.00,,,-99.99,393,WeatherLink 5.7,2013-01-06 20:45:00,
2013-01-06 13:55:00,27.6,5.3,30.40,NW,315,1.0,4.0,38,0.00,,,-99.99,280,WeatherLink 5.7,2013-01-06 20:55:00,
2013-01-06 14:00:00,27.5,5.2,30.40,NNW,337,1.0,5.0,38,0.00,,,-99.99,277,WeatherLink 5.7,2013-01-06 21:00:00,
2013-01-06 14:10:00,27.6,5.8,30.39,NW,315,1.0,3.0,39,0.00,,,-99.99,292,WeatherLink 5.7,2013-01-06 21:10:00,
2013-01-06 14:20:00,27.8,5.4,30.38,NW,315,3.0,6.0,38,0.00,,,-99.99,264,WeatherLink 5.7,2013-01-06 21:20:00,
2013-01-06 14:25:00,27.5,5.2,30.38,NW,315,4.0,7.0,38,0.00,,,-99.99,245,WeatherLink 5.7,2013-01-06 21:25:00,
2013-01-06 14:35:00,27.3,5.0,30.39,NW,315,4.0,8.0,38,0.00,,,-99.99,201,WeatherLink 5.7,2013-01-06 21:35:00,
2013-01-06 14:40:00,27.2,5.5,30.39,NW,315,4.0,7.0,39,0.00,,,-99.99,187,WeatherLink 5.7,2013-01-06 21:40:00,
2013-01-06 14:45:00,27.5,5.2,30.39,NNW,337,4.0,7.0,38,0.00,,,-99.99,244,WeatherLink 5.7,2013-01-06 21:45:00,
2013-01-06 14:50:00,27.6,5.3,30.37,NW,315,5.0,10.0,38,0.00,,,-99.99,236,WeatherLink 5.7,2013-01-06 21:50:00,
2013-01-06 14:55:00,27.6,5.3,30.37,NNW,337,4.0,9.0,38,0.00,,,-99.99,192,WeatherLink 5.7,2013-01-06 21:55:00,
2013-01-06 15:00:00,27.6,4.7,30.37,NNW,337,6.0,11.0,37,0.00,,,-99.99,185,WeatherLink 5.7,2013-01-06 22:00:00,
2013-01-06 15:10:00,27.5,5.2,30.38,NNW,337,4.0,9.0,38,0.00,,,-99.99,133,WeatherLink 5.7,2013-01-06 22:10:00,
2013-01-06 15:15:00,27.5,4.6,30.38,NNW,337,6.0,12.0,37,0.00,,,-99.99,116,WeatherLink 5.7,2013-01-06 22:15:00,
2013-01-06 15:25:00,27.3,5.0,30.39,NW,315,5.0,10.0,38,0.00,,,-99.99,98,WeatherLink 5.7,2013-01-06 22:25:00,
2013-01-06 15:30:00,27.3,5.0,30.39,NNW,337,5.0,11.0,38,0.00,,,-99.99,97,WeatherLink 5.7,2013-01-06 22:30:00,
2013-01-06 15:40:00,27.3,5.6,30.39,NW,315,3.0,9.0,39,0.00,,,-99.99,76,WeatherLink 5.7,2013-01-06 22:40:00,
2013-01-06 15:50:00,27.0,5.3,30.39,NNW,337,4.0,10.0,39,0.00,,,-99.99,61,WeatherLink 5.7,2013-01-06 22:50:00,
2013-01-06 15:55:00,27.0,5.8,30.39,NW,315,4.0,7.0,40,0.00,,,-99.99,58,WeatherLink 5.7,2013-01-06 22:55:00,
2013-01-06 16:00:00,26.9,5.8,30.39,NNW,337,4.0,9.0,40,0.00,,,-99.99,57,WeatherLink 5.7,2013-01-06 23:00:00,
2013-01-06 16:10:00,26.7,6.1,30.39,NNW,337,1.0,4.0,41,0.00,,,-99.99,47,WeatherLink 5.7,2013-01-06 23:10:00,
2013-01-06 16:15:00,26.6,5.5,30.39,NNW,337,0.0,1.0,40,0.00,,,-99.99,41,WeatherLink 5.7,2013-01-06 23:15:00,
2013-01-06 16:25:00,26.3,5.2,30.40,NNW,337,0.0,3.0,40,0.00,,,-99.99,34,WeatherLink 5.7,2013-01-06 23:25:00,
2013-01-06 16:35:00,26.1,5.0,30.41,NNW,337,0.0,3.0,40,0.00,,,-99.99,24,WeatherLink 5.7,2013-01-06 23:35:00,
2013-01-06 16:40:00,26.0,4.9,30.41,NW,315,1.0,3.0,40,0.00,,,-99.99,20,WeatherLink 5.7,2013-01-06 23:40:00,
2013-01-06 16:50:00,25.7,5.7,30.40,NW,315,0.0,1.0,42,0.00,,,-99.99,12,WeatherLink 5.7,2013-01-06 23:50:00,
2013-01-06 16:55:00,25.5,6.1,30.40,North,-999,0.0,0.0,43,0.00,,,-99.99,8,WeatherLink 5.7,2013-01-06 23:55:00,
2013-01-06 17:00:00,25.4,6.0,30.40,North,-999,0.0,0.0,43,0.00,,,-99.99,5,WeatherLink 5.7,2013-01-07 00:00:00,
2013-01-06 17:05:00,25.3,5.9,30.42,North,-999,0.0,0.0,43,0.00,,,-99.99,0,WeatherLink 5.7,2013-01-07 00:05:00,
2013-01-06 17:15:00,24.8,5.9,30.42,NW,315,0.0,1.0,44,0.00,,,-99.99,0,WeatherLink 5.7,2013-01-07 00:15:00,
2013-01-06 17:20:00,24.7,5.8,30.42,NW,315,0.0,1.0,44,0.00,,,-99.99,0,WeatherLink 5.7,2013-01-07 00:20:00,
2013-01-06 17:30:00,24.4,6.1,30.42,NW,315,0.0,2.0,45,0.00,,,-99.99,0,WeatherLink 5.7,2013-01-07 00:30:00,
2013-01-06 17:35:00,24.2,5.9,30.42,NW,315,2.0,4.0,45,0.00,,,-99.99,0,WeatherLink 5.7,2013-01-07 00:35:00,
2013-01-06 17:45:00,24.2,6.4,30.42,NW,315,1.0,3.0,46,0.00,,,-99.99,0,WeatherLink 5.7,2013-01-07 00:45:00,
2013-01-06 17:50:00,24.1,6.3,30.42,NW,315,0.0,2.0,46,0.00,,,-99.99,0,WeatherLink 5.7,2013-01-07 00:50:00,
2013-01-06 18:00:00,23.9,6.6,30.42,North,-999,0.0,0.0,47,0.00,,,-99.99,0,WeatherLink 5.7,2013-01-07 01:00:00,
2013-01-06 18:10:00,23.8,6.9,30.42,North,-999,0.0,0.0,48,0.00,,,-99.99,0,WeatherLink 5.7,2013-01-07 01:10:00,
2013-01-06 18:15:00,23.6,7.2,30.42,North,-999,0.0,0.0,49,0.00,,,-99.99,0,WeatherLink 5.7,2013-01-07 01:15:00,
2013-01-06 18:20:00,23.5,7.1,30.43,North,-999,0.0,0.0,49,0.00,,,-99.99,0,WeatherLink 5.7,2013-01-07 01:20:00,
2013-01-06 18:30:00,23.3,7.4,30.43,North,-999,0.0,0.0,50,0.00,,,-99.99,0,WeatherLink 5.7,2013-01-07 01:30:00,
2013-01-06 18:40:00,22.9,8.3,30.43,North,-999,0.0,0.0,53,0.00,,,-99.99,0,WeatherLink 5.7,2013-01-07 01:40:00,
2013-01-06 18:50:00,22.7,8.5,30.43,North,-999,0.0,0.0,54,0.00,,,-99.99,0,WeatherLink 5.7,2013-01-07 01:50:00,
2013-01-06 18:55:00,22.6,8.0,30.43,North,-999,0.0,0.0,53,0.00,,,-99.99,0,WeatherLink 5.7,2013-01-07 01:55:00,
2013-01-06 19:00:00,22.6,8.4,30.43,North,-999,0.0,0.0,54,0.00,,,-99.99,0,WeatherLink 5.7,2013-01-07 02:00:00,
2013-01-06 19:10:00,22.2,8.1,30.45,North,-999,0.0,0.0,54,0.00,,,-99.99,0,WeatherLink 5.7,2013-01-07 02:10:00,
2013-01-06 19:15:00,22.1,8.4,30.45,North,-999,0.0,0.0,55,0.00,,,-99.99,0,WeatherLink 5.7,2013-01-07 02:15:00,
2013-01-06 19:25:00,21.9,8.6,30.45,North,-999,0.0,0.0,56,0.00,,,-99.99,0,WeatherLink 5.7,2013-01-07 02:25:00,
2013-01-06 19:30:00,21.6,8.3,30.45,North,-999,0.0,0.0,56,0.00,,,-99.99,0,WeatherLink 5.7,2013-01-07 02:30:00,
2013-01-06 19:40:00,21.3,8.8,30.44,North,-999,0.0,0.0,58,0.00,,,-99.99,0,WeatherLink 5.7,2013-01-07 02:40:00,
2013-01-06 19:45:00,21.3,8.8,30.44,North,-999,0.0,0.0,58,0.00,,,-99.99,0,WeatherLink 5.7,2013-01-07 02:45:00,
2013-01-06 19:55:00,21.0,8.9,30.45,North,-999,0.0,0.0,59,0.00,,,-99.99,0,WeatherLink 5.7,2013-01-07 02:55:00,
2013-01-06 20:00:00,20.7,9.0,30.45,North,-999,0.0,0.0,60,0.00,,,-99.99,0,WeatherLink 5.7,2013-01-07 03:00:00,
2013-01-06 20:10:00,20.2,8.9,30.46,North,-999,0.0,0.0,61,0.00,,,-99.99,0,WeatherLink 5.7,2013-01-07 03:10:00,
2013-01-06 20:15:00,19.7,8.4,30.46,ESE,112,0.0,2.0,61,0.00,,,-99.99,0,WeatherLink 5.7,2013-01-07 03:15:00,
2013-01-06 20:25:00,19.4,8.1,30.43,North,-999,0.0,0.0,61,0.00,,,-99.99,0,WeatherLink 5.7,2013-01-07 03:25:00,
2013-01-06 20:30:00,19.2,7.9,30.43,ESE,112,0.0,2.0,61,0.00,,,-99.99,0,WeatherLink 5.7,2013-01-07 03:30:00,
2013-01-06 20:40:00,18.6,7.7,30.45,North,-999,0.0,0.0,62,0.00,,,-99.99,0,WeatherLink 5.7,2013-01-07 03:40:00,
2013-01-06 20:45:00,18.5,7.6,30.45,North,-999,0.0,0.0,62,0.00,,,-99.99,0,WeatherLink 5.7,2013-01-07 03:45:00,
2013-01-06 20:55:00,17.8,7.3,30.44,North,-999,0.0,0.0,63,0.00,,,-99.99,0,WeatherLink 5.7,2013-01-07 03:55:00,
2013-01-06 21:00:00,17.7,7.2,30.44,North,-999,0.0,0.0,63,0.00,,,-99.99,0,WeatherLink 5.7,2013-01-07 04:00:00,
2013-01-06 21:10:00,17.4,7.3,30.44,North,-999,0.0,0.0,64,0.00,,,-99.99,0,WeatherLink 5.7,2013-01-07 04:10:00,
2013-01-06 21:15:00,17.4,7.3,30.44,North,-999,0.0,0.0,64,0.00,,,-99.99,0,WeatherLink 5.7,2013-01-07 04:15:00,
2013-01-06 21:25:00,17.5,7.4,30.42,ESE,112,0.0,1.0,64,0.00,,,-99.99,0,WeatherLink 5.7,2013-01-07 04:25:00,
2013-01-06 21:30:00,17.5,7.4,30.42,North,-999,0.0,0.0,64,0.00,,,-99.99,0,WeatherLink 5.7,2013-01-07 04:30:00,
2013-01-06 21:35:00,17.5,7.7,30.42,ESE,112,0.0,2.0,65,0.00,,,-99.99,0,WeatherLink 5.7,2013-01-07 04:35:00,
2013-01-06 21:45:00,17.4,7.6,30.42,ESE,112,1.0,2.0,65,0.00,,,-99.99,0,WeatherLink 5.7,2013-01-07 04:45:00,
2013-01-06 21:50:00,17.2,7.8,30.43,ESE,112,0.0,2.0,66,0.00,,,-99.99,0,WeatherLink 5.7,2013-01-07 04:50:00,
2013-01-06 21:55:00,17.2,7.8,30.43,ESE,112,0.0,2.0,66,0.00,,,-99.99,0,WeatherLink 5.7,2013-01-07 04:55:00,
2013-01-06 22:00:00,17.2,7.8,30.43,ESE,112,0.0,2.0,66,0.00,,,-99.99,0,WeatherLink 5.7,2013-01-07 05:00:00,
2013-01-06 22:05:00,17.0,7.6,30.43,ESE,112,0.0,1.0,66,0.00,,,-99.99,0,WeatherLink 5.7,2013-01-07 05:05:00,
2013-01-06 22:15:00,16.7,7.6,30.43,ESE,112,0.0,2.0,67,0.00,,,-99.99,0,WeatherLink 5.7,2013-01-07 05:15:00,
2013-01-06 22:25:00,16.1,7.1,30.36,North,-999,0.0,0.0,67,0.00,,,-99.99,0,WeatherLink 5.7,2013-01-07 05:25:00,
2013-01-06 22:35:00,15.8,7.1,30.37,North,-999,0.0,0.0,68,0.00,,,-99.99,0,WeatherLink 5.7,2013-01-07 05:35:00,
2013-01-06 22:40:00,15.8,7.1,30.37,North,-999,0.0,0.0,68,0.00,,,-99.99,0,WeatherLink 5.7,2013-01-07 05:40:00,
2013-01-06 22:45:00,15.6,6.9,30.37,North,-999,0.0,0.0,68,0.00,,,-99.99,0,WeatherLink 5.7,2013-01-07 05:45:00,
2013-01-06 22:55:00,15.1,6.8,30.37,North,-999,0.0,0.0,69,0.00,,,-99.99,0,WeatherLink 5.7,2013-01-07 05:55:00,
2013-01-06 23:00:00,15.1,6.8,30.37,North,-999,0.0,0.0,69,0.00,,,-99.99,0,WeatherLink 5.7,2013-01-07 06:00:00,
2013-01-06 23:11:00,14.5,6.2,30.37,North,-999,0.0,0.0,69,0.00,,,-99.99,0,WeatherLink 5.7,2013-01-07 06:11:00,
2013-01-06 23:20:00,14.1,6.1,30.35,ESE,112,0.0,2.0,70,0.00,,,-99.99,0,WeatherLink 5.7,2013-01-07 06:20:00,
2013-01-06 23:25:00,14.1,5.8,30.35,ESE,112,0.0,2.0,69,0.00,,,-99.99,0,WeatherLink 5.7,2013-01-07 06:25:00,
2013-01-06 23:35:00,14.0,5.7,30.35,ESE,112,0.0,2.0,69,0.00,,,-99.99,0,WeatherLink 5.7,2013-01-07 06:35:00,
2013-01-06 23:45:00,13.5,5.5,30.35,ESE,112,1.0,3.0,70,0.00,,,-99.99,0,WeatherLink 5.7,2013-01-07 06:45:00,
2013-01-06 23:55:00,13.7,6.0,30.36,East,90,0.0,3.0,71,0.00,,,-99.99,0,WeatherLink 5.7,2013-01-07 06:55:00,